Starlink 31284

operational
NORAD ID: 59246 Int'l Des: 2024-049 Owner: SPXS Country: US Constellation: starlink
LEOCIRCULAR

Über Starlink 31284

Beschreibung wird geladen...

Live-Position

3D-Globus wird geladen...

Nächste Überflüge

Höhenverlauf

Altitude vs Time

uPlot chart will show altitude changes over time

Zweizeiliger Elementsatz

1 59246U 24049R 25302.89061354 .00001969 00000-0 81050-4 0 9996
2 59246 43.0006 162.0791 0001884 272.2469 87.8167 15.27585756 92391
Epoch: 29. Okt. 2025 • Age: 19 hours

Aktueller Status

Höhe 486.0 km
Geschwindigkeit 7.62 km/s
Subsatellitenpunkt -17.52°S, 142.61°W
Startdatum 16. März 2024
Alter 1.6 years
Typ internet

Technische Details

Klassifizierung Payload
Masse 730.00 kg
Trockenmasse 700.00 kg
Gesamtmasse 730.00 kg
Länge 0.30 m
Durchmesser 4.10 m
Spannweite 29.00 m
Form Box + pan
Hersteller SPXS
Bus-Typ Starlink V2M
Phasenstatus In Orbit
Besitzer/Staat SPXS/US

Große Konstellationen

Loading constellations...